Location: Andrest
(43.3200°N, 0.0641°E)
Time: 13:15:44
(UTC+00:00)

Cosmos 1959 Rocket - Pass Details

Date: 01 December 2020
Orbit: 947 x 998 km, 83.0° (Epoch: 24 January)

Event Time Altitude Azimuth Distance (km) Brightness Sun altitude
Rises 17:19:31 0° 354° (N) 3,729 7.4 -9.8°
Reaches altitude 10° 17:22:05 10° 356° (N) 2,776 6.7 -10.2°
Maximum altitude 17:28:27 70° 81° (E) 1,056 4.5 -11.3°
Drops below altitude 10° 17:34:45 10° 165° (SSE) 2,744 6.9 -12.4°
Sets 17:37:16 0° 167° (SSE) 3,683 7.6 -12.8°
